User: anonymous   Login
Location: Adelaide
(34.9286°S, 138.6000°E)
Time: 06:34:17
(UTC+10:30)
Language:

Hubble Space Telescope - Orbit

View from above orbital plane
View from above orbital plane
View from above satellite
View from above satellite

Ground track
Ground track

The orbit data is extracted from the following two-line orbital elements,

1 20580U 90037B   19314.51035153  .00000465  00000-0  17379-4 0  9991
2 20580  28.4705 334.2862 0002451 241.1153 253.4713 15.09296109422791
Epoch (UTC): 10 November 2019 12:14:54
Eccentricity: 0.0002451
inclination: 28.4705°
perigee height: 536 km
apogee height: 540 km
right ascension of ascending node: 334.2862°
argument of perigee: 241.1153°
revolutions per day: 15.09296109
mean anomaly at epoch: 253.4713°
orbit number at epoch: 42279

The dashed part of the orbit path shows where the satellite is in the earth's shadow,  

DLR